This is the latest recevied weather packets stored in our database for station/object KC3DGM. If no packets are shown the sender has not sent any weather packets the latest 10 day(s).
| Time | Temp. | Humidity | Pressure | Rain* | Wind** | Luminosity | Snow |
|---|---|---|---|---|---|---|---|
| 1778016792 | 16.67° C | 78% | 978.6 hPa | 0 mm | - | 15 W/m² | - |
| 1778016488 | 17.22° C | 78% | 978.8 hPa | 0 mm | - | 39 W/m² | - |
| 1778016185 | 17.22° C | 78% | 978.7 hPa | 0 mm | - | 75 W/m² | - |
| 1778015881 | 17.22° C | 77% | 978.9 hPa | 0 mm | - | 19 W/m² | - |
| 1778015579 | 17.22° C | 76% | 978.7 hPa | 0 mm | - | 20 W/m² | - |
| 1778015275 | 17.22° C | 77% | 978.7 hPa | 0 mm | - | 25 W/m² | - |
| 1778014972 | 17.22° C | 76% | 978.6 hPa | 0 mm | - | 28 W/m² | - |
| 1778014669 | 17.22° C | 76% | 978.9 hPa | 0 mm | - | 29 W/m² | - |
| 1778014368 | 17.78° C | 75% | 978.8 hPa | 0 mm | - | 23 W/m² | - |
| 1778014064 | 17.78° C | 74% | 978.8 hPa | 0 mm | - | 32 W/m² | - |
| 1778013762 | 17.78° C | 75% | 978.8 hPa | 0 mm | - | 52 W/m² | - |
| 1778013459 | 17.78° C | 74% | 979 hPa | 0 mm | - | 120 W/m² | - |
| 1778013156 | 17.78° C | 75% | 979.2 hPa | 0 mm | - | 79 W/m² | - |
| 1778012851 | 17.78° C | 75% | 978.8 hPa | 0 mm | - | 61 W/m² | - |
| 1778012547 | 17.78° C | 76% | 978.8 hPa | 0 mm | - | 69 W/m² | - |
| 1778012244 | 17.78° C | 76% | 978.8 hPa | 0 mm | - | 44 W/m² | - |
| 1778011942 | 17.78° C | 76% | 978.6 hPa | 0 mm | - | 75 W/m² | - |
| 1778011640 | 17.78° C | 75% | 978.8 hPa | 0 mm | - | 40 W/m² | - |
| 1778011337 | 17.78° C | 75% | 979 hPa | 0 mm | - | 19 W/m² | - |
| 1778011032 | 17.78° C | 75% | 979.2 hPa | 0 mm | - | 32 W/m² | - |
| 1778010730 | 17.78° C | 74% | 979.1 hPa | 0 mm | - | 22 W/m² | - |
| 1778010428 | 17.78° C | 73% | 979.1 hPa | 0 mm | - | 17 W/m² | - |
| 1778010124 | 18.33° C | 72% | 979.1 hPa | 0 mm | - | 16 W/m² | - |
| 1778009820 | 18.89° C | 70% | 979.2 hPa | 0 mm | - | 14 W/m² | - |
| 1778009517 | 19.44° C | 68% | 978.9 hPa | 0 mm | - | 26 W/m² | - |
* Rain latest hour (hover to see other rain measurements)
** Current wind speed in m/s (hover to see current wind gust speed)